Tracking 28920 objects as of 25-May-2024
HD Live streaming from Space Station
objects crossing your sky now

FLOCK 4X 15

Track FLOCK 4X 15 now!
10-day predictions


NORAD ID: 51010
Int'l Code: 2022-002AC
Perigee: 343.8 km
Apogee: 350.6 km
Inclination: 97.4 °
Period: 91.3 minutes
Semi major axis: 6718 km
RCS: Unknown
Launch date: January 13, 2022
Source: United States (US)
Launch site: AIR FORCE EASTERN TEST RANGE (AFETR)
Your satellite tracking list
Your tracking list is empty




NASA's NSSDC Master Catalog

Two Line Element Set (TLE):
1 51010U 22002AC  24145.75078867  .00446283  00000-0  26704-2 0  9995
2 51010  97.3775 225.7399 0005024 257.0192 103.0512 15.76598876131673
Source of the keplerian elements: AFSPC